Home > Weather > Gaggenau > Past weeks

Flag for Germany Past Weather in Gaggenau, Baden-Württemberg, Germany — Yesterday and Last 2 Weeks

Now
66 °F

Passing clouds.


Feels Like: 66 °F
Forecast: 56 / 71 °F
Wind: 7 mph from Southwest

Location: Karlsruhe - Baden Wurttemberg

Current Time: Jun 25, 2016 at 7:10:12 AM

Latest Report: Jun 25, 2016 at 6:20 AM


Visibility: N/A

Pressure: 29.95 "Hg

Humidity: 100%

Dew Point: 66 °F

Location of GaggenauLocation

Past Weather in Gaggenau — Graph

°F

Gaggenau Temperature Yesterday

Maximum temperature yesterday: 91 °F (at 4:20 PM)
Minimum temperature yesterday: 68 °F (at 5:50 AM)
Average temperature yesterday: 81 °F

High & Low Weather Summary for the Past Weeks

 TemperatureHumidityPressure
High91 °F (Jun 23, 4:20 PM)100% (Jun 11, 9:50 PM)30.27 "Hg (Jun 11, 9:50 PM)
Low50 °F (Jun 20, 4:50 AM)38% (Jun 23, 5:50 PM)29.56 "Hg (Jun 14, 11:50 AM)
Average66 °F79%29.91 "Hg
* Reported Jun 10 5:20 AM — Jun 25 5:50 AM, Gaggenau, Weather by CustomWeather, © 2016

Note: Actual official high and low records may vary slightly from our data, if they occured in-between our weather recording intervals... More about our weather records

Advertising

Gaggenau Weather History for the Previous 24 Hours

Scroll right to see more
 ConditionsComfort  
Time TempWeatherWind HumidityBarometerVisibility
5:50 AM
Sat, Jun 25
66 °FPassing clouds.9 mph100%29.95 "HgN/A
5:20 AM66 °FScattered showers. Partly cloudy.5 mph94%29.92 "HgN/A
4:50 AM66 °FThundershowers. Partly cloudy.2 mph94%29.95 "Hg6 mi
3:20 AM66 °FThunderstorms. Passing clouds.1 mph94%29.98 "Hg4 mi
2:50 AM68 °FThunderstorms. Passing clouds.2 mph88%29.98 "HgN/A
11:20 PM
Fri, Jun 24
75 °FPassing clouds.8 mph83%29.98 "HgN/A
10:50 PM75 °FPassing clouds.3 mph83%29.98 "HgN/A
10:20 PM75 °FScattered clouds.5 mph83%29.98 "HgN/A
9:50 PM77 °FSunny.2 mph79%29.98 "Hg10 mi
9:20 PM79 °FSunny.2 mph74%29.98 "Hg10 mi
8:50 PM81 °FSunny.2 mph70%29.98 "Hg10 mi
8:20 PM81 °FSunny.2 mph66%29.98 "Hg10 mi
7:50 PM79 °FSunny.2 mph70%29.98 "Hg10 mi
7:20 PM81 °FPassing clouds.3 mph66%29.98 "HgN/A
6:50 PM81 °FPassing clouds.3 mph66%29.98 "HgN/A
6:20 PM82 °FPassing clouds.6 mph62%29.98 "HgN/A
5:50 PM84 °FPassing clouds.8 mph58%29.98 "HgN/A
5:20 PM88 °FPassing clouds.7 mph55%29.98 "HgN/A
4:50 PM90 °FSunny.2 mph46%29.98 "Hg10 mi
4:20 PM91 °FPassing clouds.5 mph46%29.98 "HgN/A
3:50 PM90 °FPassing clouds.5 mph49%29.98 "HgN/A
3:20 PM90 °FPassing clouds.6 mph49%30.01 "HgN/A
2:50 PM90 °FPassing clouds.6 mph46%30.01 "HgN/A
2:20 PM88 °FSunny.6 mph46%30.01 "Hg10 mi
1:50 PM88 °FPassing clouds.6 mph43%30.01 "HgN/A
1:20 PM88 °FPassing clouds.8 mph43%30.04 "HgN/A
12:50 PM86 °FPassing clouds.9 mph43%30.04 "HgN/A
12:20 PM86 °FPassing clouds.8 mph46%30.04 "HgN/A
11:50 AM86 °FPassing clouds.8 mph46%30.04 "HgN/A
11:20 AM84 °FPassing clouds.9 mph48%30.04 "HgN/A
10:50 AM84 °FSunny.12 mph51%30.04 "Hg10 mi
10:20 AM82 °FSunny.12 mph58%30.04 "Hg10 mi
9:50 AM79 °FSunny.8 mph65%30.04 "Hg10 mi
9:20 AM81 °FPassing clouds.8 mph66%30.04 "HgN/A
8:50 AM79 °FPassing clouds.6 mph74%30.04 "HgN/A
8:20 AM77 °FPassing clouds.5 mph79%30.04 "HgN/A
7:50 AM75 °FPassing clouds.6 mph78%30.04 "HgN/A
7:20 AM73 °FSunny.2 mph83%30.04 "Hg10 mi
Weather by CustomWeather, © 2016

See weather overviewHow to use our weather pages